This is the latest recevied weather packets stored in our database for station/object IZ1RFL-3. If no packets are shown the sender has not sent any weather packets the latest 10 day(s).
| Time | Temp. | Humidity | Pressure | Rain* | Wind** | Luminosity | Snow |
|---|---|---|---|---|---|---|---|
| 1777669262 | 15.56° C | 41% | 1026.8 hPa | - | - | - | - |
| 1777668362 | 15.56° C | 40% | 1026.8 hPa | - | - | - | - |
| 1777667462 | 15.56° C | 40% | 1026.7 hPa | - | - | - | - |
| 1777666562 | 16.11° C | 40% | 1026.7 hPa | - | - | - | - |
| 1777665662 | 16.11° C | 40% | 1026.6 hPa | - | - | - | - |
| 1777664762 | 16.11° C | 40% | 1026.5 hPa | - | - | - | - |
| 1777663862 | 16.11° C | 39% | 1026.4 hPa | - | - | - | - |
| 1777662962 | 16.67° C | 40% | 1026.2 hPa | - | - | - | - |
| 1777662062 | 17.22° C | 37% | 1026.2 hPa | - | - | - | - |
| 1777661162 | 17.78° C | 35% | 1026.1 hPa | - | - | - | - |
| 1777660262 | 17.78° C | 36% | 1025.9 hPa | - | - | - | - |
| 1777659362 | 17.78° C | 36% | 1025.9 hPa | - | - | - | - |
| 1777658462 | 18.33° C | 35% | 1025.9 hPa | - | - | - | - |
| 1777657562 | 18.33° C | 35% | 1025.9 hPa | - | - | - | - |
| 1777656662 | 18.33° C | 35% | 1026 hPa | - | - | - | - |
| 1777655762 | 18.89° C | 34% | 1026 hPa | - | - | - | - |
| 1777654862 | 18.89° C | 34% | 1026 hPa | - | - | - | - |
| 1777653962 | 18.89° C | 33% | 1026.1 hPa | - | - | - | - |
| 1777653062 | 18.89° C | 32% | 1026.3 hPa | - | - | - | - |
| 1777652162 | 18.89° C | 32% | 1026.4 hPa | - | - | - | - |
| 1777651262 | 19.44° C | 31% | 1026.6 hPa | - | - | - | - |
| 1777650362 | 18.89° C | 31% | 1026.6 hPa | - | - | - | - |
| 1777649462 | 19.44° C | 30% | 1026.8 hPa | - | - | - | - |
| 1777647662 | 19.44° C | 29% | 1027.1 hPa | - | - | - | - |
| 1777646762 | 20° C | 29% | 1027.3 hPa | - | - | - | - |
* Rain since midnight (hover to see other rain measurements)
** Current wind speed in m/s (hover to see current wind gust speed)